This is the latest recevied weather packets stored in our database for station/object DL9GRB-13. If no packets are shown the sender has not sent any weather packets the latest 10 day(s).
| Time | Temp. | Humidity | Pressure | Rain* | Wind** | Luminosity | Snow |
|---|---|---|---|---|---|---|---|
| 1778229969 | 14.44° C | 40% | 1020.9 hPa | 0 mm | - | 593 W/m² | - |
| 1778229789 | 14.44° C | 40% | 1020.7 hPa | 0 mm | - | 586 W/m² | - |
| 1778229609 | 14.44° C | 40% | 1020.8 hPa | 0 mm | - | 579 W/m² | - |
| 1778229429 | 14.44° C | 38% | 1020.6 hPa | 0 mm | - | 572 W/m² | - |
| 1778229249 | 14.44° C | 42% | 1020.8 hPa | 0 mm | - | 565 W/m² | - |
| 1778229069 | 14.44° C | 40% | 1020.9 hPa | 0 mm | - | 559 W/m² | - |
| 1778228889 | 14.44° C | 42% | 1020.8 hPa | 0 mm | - | 552 W/m² | - |
| 1778228709 | 14.44° C | 41% | 1020.9 hPa | 0 mm | - | 546 W/m² | - |
| 1778228529 | 13.89° C | 42% | 1020.9 hPa | 0 mm | - | 540 W/m² | - |
| 1778228349 | 13.89° C | 41% | 1020.6 hPa | 0 mm | - | 531 W/m² | - |
| 1778228169 | 13.89° C | 41% | 1020.8 hPa | 0 mm | - | 529 W/m² | - |
| 1778227989 | 13.89° C | 41% | 1020.8 hPa | 0 mm | - | 521 W/m² | - |
| 1778227809 | 13.89° C | 43% | 1020.7 hPa | 0 mm | - | 511 W/m² | - |
| 1778227629 | 13.89° C | 41% | 1020.9 hPa | 0 mm | - | 489 W/m² | - |
| 1778227449 | 13.89° C | 41% | 1020.7 hPa | 0 mm | - | 477 W/m² | - |
| 1778227269 | 13.89° C | 41% | 1020.9 hPa | 0 mm | - | 433 W/m² | - |
| 1778227089 | 13.89° C | 42% | 1020.9 hPa | 0 mm | - | 314 W/m² | - |
| 1778226909 | 13.89° C | 40% | 1020.9 hPa | 0 mm | - | 233 W/m² | - |
| 1778226729 | 13.33° C | 41% | 1020.7 hPa | 0 mm | - | 303 W/m² | - |
| 1778226549 | 13.33° C | 42% | 1020.7 hPa | 0 mm | - | 417 W/m² | - |
| 1778226369 | 13.33° C | 43% | 1020.8 hPa | 0 mm | - | 442 W/m² | - |
| 1778226189 | 13.33° C | 42% | 1020.6 hPa | 0 mm | - | 449 W/m² | - |
| 1778226009 | 13.33° C | 43% | 1020.9 hPa | 0 mm | - | 448 W/m² | - |
| 1778225829 | 13.33° C | 45% | 1020.7 hPa | 0 mm | - | 444 W/m² | - |
| 1778225649 | 13.33° C | 43% | 1020.6 hPa | 0 mm | - | 440 W/m² | - |
* Rain latest hour (hover to see other rain measurements)
** Current wind speed in m/s (hover to see current wind gust speed)